Current Version              Previous Version:    01  02  03  04  05  06  07  08  09  10  11  12  13  14  15  16  17  18  19  20  21  22  23  24  25  26  27  28  29  30  
   31  32  33  34  35  36  37  38  39  40  41  42  43  44  45  46  47  48  49  50  51  52  53  54  55  56  57  58  59  60  

[Printable]
725
ASUS44 KFWD 240910
RWRTX
NORTH TEXAS HOURLY WEATHER ROUNDUP
NATIONAL WEATHER SERVICE FORT WORTH TX
400 AM CDT FRI OCT 24 2014

NOTE: "FAIR" INDICATES FEW OR NO CLOUDS BELOW 12,000 FEET WITH NO
SIGNIFICANT WEATHER AND/OR OBSTRUCTIONS TO VISIBILITY.

TXZ118-119-241000-
DALLAS/FORT WORTH METROPLEX

CITY           SKY/WX    TMP DP  RH WIND       PRES   REMARKS
DFW AIRPORT    PTCLDY    61  55  81 S5        30.10F
DALLAS LOVE    PTCLDY    64  56  75 S7        30.11S
FTW MEACHAM    CLEAR     63  55  75 S7        30.10S
DAL-EXECUTIVE  CLOUDY    65  55  70 S5        30.10F
FTW-ALLIANCE   PTCLDY    61  55  81 S3        30.10S
FTW-NAS-JRB    CLEAR     69  54  58 S5        30.14F
FTW-SPINKS     CLEAR     61  55  80 CALM      30.12S
ARLINGTON      PTCLDY    63  54  72 S6        30.11S
GRAND PRAIRIE  PTCLDY    64  57  79 S5        30.12S
ADDISON        CLEAR     64  58  83 S5        30.12F
MESQUITE       CLEAR     57  55  93 CALM      30.12S
LANCASTER      CLOUDY    59  55  84 CALM      30.12S
$$

TXZ091>094-102>105-117-120-121-131>134-241000-
NORTH CENTRAL TEXAS

CITY           SKY/WX    TMP DP  RH WIND       PRES   REMARKS
SHRMAN/DENISON CLEAR     60  56  88 E5        30.13S
GAINESVILLE    CLEAR     59  55  88 S5        30.12F
BOWIE          CLEAR     58  56  94 CALM      30.10S
BRIDGEPORT     CLEAR     56  56 100 CALM      30.12S
DECATUR        CLEAR     63  55  74 SE6       30.11S
DENTON         CLEAR     60  56  86 SE3       30.11S
MCKINNEY       CLEAR     59  55  87 SE3       30.12S
GREENVILLE     PTCLDY    55  52  88 CALM      30.13F
ROCKWALL       CLEAR     59  55  87 CALM      30.11S
TERRELL        CLEAR     58  54  86 CALM      30.13R
WAXAHACHIE     PTCLDY    59  56  88 CALM      30.13S
CLEBURNE       PTCLDY    63  57  82 S7        30.13S
GRANBURY       CLEAR     64  57  80 SE5       30.12S
$$

TXZ083>090-098>101-113>116-127>130-139>142-154-155-241000-
WESTERN NORTH TEXAS

CITY           SKY/WX    TMP DP  RH WIND       PRES   REMARKS
WICHITA FALLS  CLEAR     62  57  83 S8        30.07F
WF-KICKAPOO    CLEAR     62  57  85 SW5       30.09S
VERNON         CLEAR     61  57  88 CALM      30.08F
ABILENE        CLEAR     63  59  87 S3        30.11S
ABILENE-DYESS  CLEAR     64  59  82 S2        30.10S
BRECKENRIDGE   CLEAR     65  59  80 S7        30.09F HAZE
GRAHAM         CLEAR     63  58  83 CALM      30.08F
MINERAL WELLS  CLEAR     60  56  86 SE7       30.09F
STEPHENVILLE   CLEAR     60  56  85 S3        30.14S
COMANCHE       CLEAR     61  59  92 S6        30.12S
BROWNWOOD      CLOUDY    63  59  88 MISG      30.12F
COLEMAN        CLEAR     61  59  91 S3        30.12F
BRADY          CLEAR     61  59  94 S5        30.12F
$$

TXZ143>147-156>162-174-175-241000-
CENTRAL TEXAS

CITY           SKY/WX    TMP DP  RH WIND       PRES   REMARKS
WACO           MOCLDY    65  55  70 S8        30.12S
WACO-MCGREGOR  CLEAR     61  52  72 S5        30.13F
HILLSBORO      PTCLDY    63  53  72 S6        30.12F
CORSICANA      CLEAR     58  54  86 S5        30.13S
MEXIA          CLOUDY    59  54  84 S3        30.12S
HEARNE         PTCLDY    58  55  87 CALM      30.14S FOG
CAMERON        PTCLDY    59  55  87 CALM      30.13S
TEMPLE         PTCLDY    61  52  72 S6        30.12S
KILLEEN        CLEAR     60  55  85 S7        30.13S
KILLEEN-SKYLRK CLEAR     61  50  67 SE3       30.10F
FORT HOOD      CLEAR     64  56  75 S3        30.12F
GATESVILLE     CLEAR     61  55  82 CALM      30.15S
HAMILTON       CLEAR     61  55  81 SE6       30.14S
LAMPASAS       CLEAR     60  57  89 CALM      30.12S
$$

TXZ095>097-106>112-122>126-135>138-148>153-164>167-241000-
EAST TEXAS

CITY           SKY/WX    TMP DP  RH WIND       PRES   REMARKS
PARIS          CLEAR     54  45  71 E5        30.14F
SULPHUR SPRNGS CLEAR     55  54  94 CALM      30.15F
MOUNT PLEASANT CLEAR     53  51  93 CALM      30.15S
MINEOLA        CLEAR     54  54 100 CALM      30.14S
TYLER          CLEAR     57  52  83 E3        30.13S
LONGVIEW       CLEAR     53  50  89 CALM      30.13F
MARSHALL       CLEAR     53  51  92 CALM      30.16S
ATHENS         CLEAR     54  52  94 CALM      30.12S
PALESTINE      CLEAR     56  54  91 SE3       30.14S
JACKSONVILLE   CLEAR     57  50  79 CALM      30.14F
HENDERSON      CLEAR     51  51 100 CALM      30.15S
NACOGDOCHES    CLEAR     48  45  87 CALM      30.14F
LUFKIN         CLEAR     53  49  86 CALM      30.14R
$$

SUPPLEMENTAL OBSERVATIONS (CENTRAL)

CITY           SKY/WX    TMP DP  RH WIND       PRES   REMARKS
CADDO GRASSLND   N/A     55  52  88 S2          N/A
PAT MAYSE LAKE   N/A     55  52  88 E1          N/A
MCGREGOR         N/A     59  54  82 SW2         N/A
$$

SUPPLEMENTAL OBSERVATIONS (WEST)

CITY           SKY/WX    TMP DP  RH WIND       PRES   REMARKS
MILLERS CREEK    N/A     61  52  72 S3          N/A
LBJ GRASSLAND    N/A     63  54  72 SE7         N/A
GRANBURY         N/A     63  55  77 SE5         N/A
HAMBY            N/A     61  57  88 S5          N/A
$$

SUPPLEMENTAL OBSERVATIONS (EAST)

CITY           SKY/WX    TMP DP  RH WIND       PRES   REMARKS
TEXARKANA        N/A     46  45  93 CALM        N/A
LINDEN           N/A     50  46  87 CALM        N/A
N SABINE NF      N/A     46  43  87 MISG        N/A
$$

SUPPLEMENTAL OBSERVATIONS ARE A COLLECTION OF AUTOMATED INSTRUMENTS
THAT ARE MAINTAINED BY A VARIETY OF FEDERAL AND STATE AGENCIES.
CERTAIN ELEMENTS...SUCH AS HUMIDITY VALUES AND SUSTAINED WIND
SPEEDS...MAY BE APPROXIMATED.